Time,TemperatureF,DewpointF,PressureIn,WindDirection,WindDirectionDegrees,WindSpeedMPH,WindSpeedGustMPH,Humidity,HourlyPrecipIn,Conditions,Clouds,dailyrainin,SoftwareType,DateUTC
2013-11-24 00:01:00,30.3,21.4,30.28,SSE,152,0.0,1.0,69,0.00,,,0.00,WeatherCatV1.22B15,2013-11-24 05:01:00,
2013-11-24 00:02:00,30.3,21.4,30.28,ESE,113,0.0,1.0,69,0.00,,,0.00,WeatherCatV1.22B15,2013-11-24 05:02:00,
2013-11-24 00:03:00,30.2,21.3,30.27,South,184,1.0,1.0,69,0.00,,,0.00,WeatherCatV1.22B15,2013-11-24 05:03:00,
2013-11-24 00:08:00,30.1,21.2,30.28,NW,311,0.0,1.0,69,0.00,,,0.00,WeatherCatV1.22B15,2013-11-24 05:08:00,
2013-11-24 00:13:00,30.0,20.4,30.28,ESE,105,0.0,2.0,67,0.00,,,0.00,WeatherCatV1.22B15,2013-11-24 05:13:00,
2013-11-24 00:18:00,30.0,20.4,30.28,ESE,102,3.0,6.0,67,0.00,,,0.00,WeatherCatV1.22B15,2013-11-24 05:18:00,
2013-11-24 00:23:00,29.9,19.9,30.28,SSW,200,2.0,3.0,66,0.00,,,0.00,WeatherCatV1.22B15,2013-11-24 05:23:00,
2013-11-24 00:29:00,29.8,19.9,30.28,East,89,0.0,2.0,66,0.00,,,0.00,WeatherCatV1.22B15,2013-11-24 05:29:00,
2013-11-24 00:34:00,29.7,19.8,30.28,SE,125,2.0,6.0,66,0.00,,,0.00,WeatherCatV1.22B15,2013-11-24 05:34:00,
2013-11-24 00:39:00,29.6,19.7,30.28,SSE,153,3.0,3.0,66,0.00,,,0.00,WeatherCatV1.22B15,2013-11-24 05:39:00,
2013-11-24 00:44:00,29.5,19.6,30.28,East,91,0.0,0.0,66,0.00,,,0.00,WeatherCatV1.22B15,2013-11-24 05:44:00,
2013-11-24 00:50:00,29.2,19.3,30.28,South,173,2.0,2.0,66,0.00,,,0.00,WeatherCatV1.22B15,2013-11-24 05:50:00,
2013-11-24 00:55:00,29.2,19.3,30.28,SE,136,2.0,2.0,66,0.00,,,0.00,WeatherCatV1.22B15,2013-11-24 05:55:00,
2013-11-24 00:57:00,29.1,19.2,30.28,ESE,102,0.0,0.0,66,0.00,,,0.00,WeatherCatV1.22B15,2013-11-24 05:57:00,
2013-11-24 01:02:00,28.9,19.3,30.28,SE,140,0.0,7.0,67,0.00,,,0.00,WeatherCatV1.22B15,2013-11-24 06:02:00,
2013-11-24 01:07:00,28.8,19.2,30.28,SSE,148,0.0,2.0,67,0.00,,,0.00,WeatherCatV1.22B15,2013-11-24 06:07:00,
2013-11-24 01:12:00,28.6,19.1,30.29,ESE,113,0.0,1.0,67,0.00,,,0.00,WeatherCatV1.22B15,2013-11-24 06:12:00,
2013-11-24 01:17:00,28.3,18.8,30.29,ESE,121,0.0,3.0,67,0.00,,,0.00,WeatherCatV1.22B15,2013-11-24 06:17:00,
2013-11-24 01:23:00,28.1,18.9,30.30,ENE,75,0.0,5.0,68,0.00,,,0.00,WeatherCatV1.22B15,2013-11-24 06:23:00,
2013-11-24 01:28:00,27.9,19.1,30.30,East,92,0.0,1.0,69,0.00,,,0.00,WeatherCatV1.22B15,2013-11-24 06:28:00,
2013-11-24 01:33:00,27.8,19.0,30.30,ESE,113,1.0,4.0,69,0.00,,,0.00,WeatherCatV1.22B15,2013-11-24 06:33:00,
2013-11-24 01:38:00,27.7,18.5,30.30,ESE,105,0.0,3.0,68,0.00,,,0.00,WeatherCatV1.22B15,2013-11-24 06:38:00,
2013-11-24 01:44:00,27.5,18.7,30.30,SE,124,0.0,4.0,69,0.00,,,0.00,WeatherCatV1.22B15,2013-11-24 06:44:00,
2013-11-24 01:49:00,27.3,18.5,30.30,SE,137,0.0,1.0,69,0.00,,,0.00,WeatherCatV1.22B15,2013-11-24 06:49:00,
2013-11-24 01:54:00,27.2,18.4,30.31,East,101,0.0,3.0,69,0.00,,,0.00,WeatherCatV1.22B15,2013-11-24 06:54:00,
2013-11-24 01:59:00,27.0,18.5,30.31,East,84,0.0,0.0,70,0.00,,,0.00,WeatherCatV1.22B15,2013-11-24 06:59:00,
2013-11-24 02:04:00,26.8,18.7,30.31,SE,142,0.0,0.0,71,0.00,,,0.00,WeatherCatV1.22B15,2013-11-24 07:04:00,
2013-11-24 02:10:00,26.6,18.2,30.31,ESE,117,0.0,1.0,70,0.00,,,0.00,WeatherCatV1.22B15,2013-11-24 07:10:00,
2013-11-24 02:15:00,26.4,18.3,30.32,East,98,2.0,3.0,71,0.00,,,0.00,WeatherCatV1.22B15,2013-11-24 07:15:00,
2013-11-24 02:20:00,26.2,18.1,30.32,ESE,111,0.0,2.0,71,0.00,,,0.00,WeatherCatV1.22B15,2013-11-24 07:20:00,
2013-11-24 02:25:00,26.1,18.0,30.32,ESE,106,0.0,2.0,71,0.00,,,0.00,WeatherCatV1.22B15,2013-11-24 07:25:00,
2013-11-24 02:30:00,26.1,18.0,30.32,WNW,297,2.0,3.0,71,0.00,,,0.00,WeatherCatV1.22B15,2013-11-24 07:30:00,
2013-11-24 02:35:00,25.8,17.4,30.32,NNW,335,2.0,5.0,70,0.00,,,0.00,WeatherCatV1.22B15,2013-11-24 07:35:00,
2013-11-24 02:40:00,25.7,17.9,30.33,SE,127,0.0,0.0,72,0.00,,,0.00,WeatherCatV1.22B15,2013-11-24 07:40:00,
2013-11-24 02:45:00,25.5,17.4,30.33,ENE,61,1.0,1.0,71,0.00,,,0.00,WeatherCatV1.22B15,2013-11-24 07:45:00,
2013-11-24 02:50:00,25.3,16.9,30.33,East,96,0.0,5.0,70,0.00,,,0.00,WeatherCatV1.22B15,2013-11-24 07:50:00,
2013-11-24 02:56:00,25.1,16.4,30.33,ENE,76,1.0,4.0,69,0.00,,,0.00,WeatherCatV1.22B15,2013-11-24 07:56:00,
2013-11-24 03:01:00,24.9,16.2,30.33,ESE,108,2.0,5.0,69,0.00,,,0.00,WeatherCatV1.22B15,2013-11-24 08:01:00,
2013-11-24 03:06:00,24.8,16.1,30.33,East,99,0.0,5.0,69,0.00,,,0.00,WeatherCatV1.22B15,2013-11-24 08:06:00,
2013-11-24 03:11:00,24.6,15.9,30.33,ESE,118,0.0,2.0,69,0.00,,,0.00,WeatherCatV1.22B15,2013-11-24 08:11:00,
2013-11-24 03:16:00,24.4,15.7,30.33,ESE,103,0.0,2.0,69,0.00,,,0.00,WeatherCatV1.22B15,2013-11-24 08:16:00,
2013-11-24 03:21:00,24.3,15.9,30.34,WNW,292,0.0,1.0,70,0.00,,,0.00,WeatherCatV1.22B15,2013-11-24 08:21:00,
2013-11-24 03:26:00,24.2,15.9,30.34,SW,225,0.0,3.0,70,0.00,,,0.00,WeatherCatV1.22B15,2013-11-24 08:26:00,
2013-11-24 03:31:00,24.0,15.7,30.34,SSE,155,1.0,1.0,70,0.00,,,0.00,WeatherCatV1.22B15,2013-11-24 08:31:00,
2013-11-24 03:37:00,23.9,15.9,30.34,NE,37,0.0,0.0,71,0.00,,,0.00,WeatherCatV1.22B15,2013-11-24 08:37:00,
2013-11-24 03:42:00,23.8,15.1,30.34,East,94,3.0,3.0,69,0.00,,,0.00,WeatherCatV1.22B15,2013-11-24 08:42:00,
2013-11-24 03:47:00,23.7,15.0,30.34,NE,35,1.0,1.0,69,0.00,,,0.00,WeatherCatV1.22B15,2013-11-24 08:47:00,
2013-11-24 03:52:00,23.6,15.3,30.35,NW,305,1.0,1.0,70,0.00,,,0.00,WeatherCatV1.22B15,2013-11-24 08:52:00,
2013-11-24 03:57:00,23.5,14.9,30.35,ESE,106,0.0,6.0,69,0.00,,,0.00,WeatherCatV1.22B15,2013-11-24 08:57:00,
2013-11-24 04:03:00,23.4,15.1,30.35,SW,226,1.0,2.0,70,0.00,,,0.00,WeatherCatV1.22B15,2013-11-24 09:03:00,
2013-11-24 04:08:00,23.3,15.0,30.35,ENE,72,0.0,1.0,70,0.00,,,0.00,WeatherCatV1.22B15,2013-11-24 09:08:00,
2013-11-24 04:13:00,23.1,14.5,30.36,South,188,0.0,4.0,69,0.00,,,0.00,WeatherCatV1.22B15,2013-11-24 09:13:00,
2013-11-24 04:18:00,23.1,14.5,30.36,ESE,105,0.0,1.0,69,0.00,,,0.00,WeatherCatV1.22B15,2013-11-24 09:18:00,
2013-11-24 04:23:00,23.0,14.4,30.36,ESE,121,1.0,1.0,69,0.00,,,0.00,WeatherCatV1.22B15,2013-11-24 09:23:00,
2013-11-24 04:28:00,22.8,14.2,30.36,South,171,1.0,2.0,69,0.00,,,0.00,WeatherCatV1.22B15,2013-11-24 09:28:00,
2013-11-24 04:34:00,22.7,14.4,30.37,ESE,110,2.0,3.0,70,0.00,,,0.00,WeatherCatV1.22B15,2013-11-24 09:34:00,
2013-11-24 04:39:00,22.7,14.4,30.37,SW,217,2.0,2.0,70,0.00,,,0.00,WeatherCatV1.22B15,2013-11-24 09:39:00,
2013-11-24 04:44:00,22.6,14.3,30.37,North,355,1.0,1.0,70,0.00,,,0.00,WeatherCatV1.22B15,2013-11-24 09:44:00,
2013-11-24 04:49:00,22.4,14.1,30.38,SSE,150,1.0,1.0,70,0.00,,,0.00,WeatherCatV1.22B15,2013-11-24 09:49:00,
2013-11-24 04:54:00,22.4,13.8,30.38,ENE,66,1.0,6.0,69,0.00,,,0.00,WeatherCatV1.22B15,2013-11-24 09:54:00,
2013-11-24 04:59:00,22.3,13.7,30.38,South,169,1.0,4.0,69,0.00,,,0.00,WeatherCatV1.22B15,2013-11-24 09:59:00,
2013-11-24 05:04:00,22.2,13.9,30.39,SSW,197,6.0,6.0,70,0.00,,,0.00,WeatherCatV1.22B15,2013-11-24 10:04:00,
2013-11-24 05:10:00,22.1,13.8,30.39,ESE,109,0.0,2.0,70,0.00,,,0.00,WeatherCatV1.22B15,2013-11-24 10:10:00,
2013-11-24 05:15:00,22.1,13.8,30.39,SE,128,0.0,1.0,70,0.00,,,0.00,WeatherCatV1.22B15,2013-11-24 10:15:00,
2013-11-24 05:20:00,22.1,13.8,30.39,ESE,111,0.0,0.0,70,0.00,,,0.00,WeatherCatV1.22B15,2013-11-24 10:20:00,
2013-11-24 05:25:00,22.0,13.7,30.39,SSE,166,1.0,5.0,70,0.00,,,0.00,WeatherCatV1.22B15,2013-11-24 10:25:00,
2013-11-24 05:30:00,22.0,13.7,30.40,South,173,0.0,1.0,70,0.00,,,0.00,WeatherCatV1.22B15,2013-11-24 10:30:00,
2013-11-24 05:35:00,21.9,13.6,30.40,SW,231,3.0,3.0,70,0.00,,,0.00,WeatherCatV1.22B15,2013-11-24 10:35:00,
2013-11-24 05:40:00,21.7,13.4,30.40,SW,214,1.0,4.0,70,0.00,,,0.00,WeatherCatV1.22B15,2013-11-24 10:40:00,
2013-11-24 05:45:00,21.5,13.6,30.40,ESE,106,0.0,2.0,71,0.00,,,0.00,WeatherCatV1.22B15,2013-11-24 10:45:00,
2013-11-24 05:50:00,21.5,13.6,30.40,SSE,155,1.0,4.0,71,0.00,,,0.00,WeatherCatV1.22B15,2013-11-24 10:50:00,
2013-11-24 05:56:00,21.4,13.5,30.41,ESE,113,3.0,4.0,71,0.00,,,0.00,WeatherCatV1.22B15,2013-11-24 10:56:00,
2013-11-24 06:01:00,21.3,13.4,30.41,ESE,117,3.0,3.0,71,0.00,,,0.00,WeatherCatV1.22B15,2013-11-24 11:01:00,
2013-11-24 06:06:00,21.3,13.4,30.41,SSE,153,0.0,2.0,71,0.00,,,0.00,WeatherCatV1.22B15,2013-11-24 11:06:00,
2013-11-24 06:11:00,21.2,13.0,30.42,East,91,0.0,1.0,70,0.00,,,0.00,WeatherCatV1.22B15,2013-11-24 11:11:00,
2013-11-24 06:16:00,21.0,12.8,30.41,ESE,114,1.0,1.0,70,0.00,,,0.00,WeatherCatV1.22B15,2013-11-24 11:16:00,
2013-11-24 06:21:00,20.9,12.7,30.42,ESE,121,1.0,1.0,70,0.00,,,0.00,WeatherCatV1.22B15,2013-11-24 11:21:00,
2013-11-24 06:26:00,20.9,13.0,30.42,NE,56,0.0,0.0,71,0.00,,,0.00,WeatherCatV1.22B15,2013-11-24 11:26:00,
2013-11-24 06:31:00,20.8,12.6,30.43,East,83,0.0,1.0,70,0.00,,,0.00,WeatherCatV1.22B15,2013-11-24 11:31:00,
2013-11-24 06:36:00,20.7,12.8,30.43,SE,126,0.0,0.0,71,0.00,,,0.00,WeatherCatV1.22B15,2013-11-24 11:36:00,
2013-11-24 06:41:00,20.7,12.5,30.44,ESE,113,0.0,0.0,70,0.00,,,0.00,WeatherCatV1.22B15,2013-11-24 11:41:00,
2013-11-24 06:46:00,20.6,12.1,30.44,East,101,1.0,2.0,69,0.00,,,0.00,WeatherCatV1.22B15,2013-11-24 11:46:00,
2013-11-24 06:52:00,20.6,11.7,30.44,East,101,0.0,0.0,68,0.00,,,0.00,WeatherCatV1.22B15,2013-11-24 11:52:00,
2013-11-24 06:57:00,20.5,11.6,30.45,SE,131,0.0,1.0,68,0.00,,,0.00,WeatherCatV1.22B15,2013-11-24 11:57:00,
2013-11-24 07:02:00,20.4,11.9,30.45,SE,146,0.0,2.0,69,0.00,,,0.00,WeatherCatV1.22B15,2013-11-24 12:02:00,
2013-11-24 07:07:00,20.3,12.1,30.46,ESE,109,0.0,3.0,70,0.00,,,0.00,WeatherCatV1.22B15,2013-11-24 12:07:00,
2013-11-24 07:12:00,20.3,11.8,30.46,SE,133,1.0,1.0,69,0.00,,,0.00,WeatherCatV1.22B15,2013-11-24 12:12:00,
2013-11-24 07:17:00,20.2,11.4,30.46,East,94,0.0,3.0,68,0.00,,,0.00,WeatherCatV1.22B15,2013-11-24 12:17:00,
2013-11-24 07:23:00,20.2,11.7,30.46,NE,48,1.0,1.0,69,0.00,,,0.00,WeatherCatV1.22B15,2013-11-24 12:23:00,
2013-11-24 07:28:00,20.2,11.7,30.46,ESE,115,0.0,0.0,69,0.00,,,0.00,WeatherCatV1.22B15,2013-11-24 12:28:00,
2013-11-24 07:33:00,20.2,11.7,30.46,West,274,0.0,1.0,69,0.00,,,0.00,WeatherCatV1.22B15,2013-11-24 12:33:00,
2013-11-24 07:38:00,20.1,11.6,30.47,ESE,123,0.0,0.0,69,0.00,,,0.00,WeatherCatV1.22B15,2013-11-24 12:38:00,
2013-11-24 07:43:00,20.1,11.6,30.47,SE,141,1.0,2.0,69,0.00,,,0.00,WeatherCatV1.22B15,2013-11-24 12:43:00,
2013-11-24 07:48:00,20.1,11.3,30.47,SE,130,0.0,2.0,68,0.00,,,0.00,WeatherCatV1.22B15,2013-11-24 12:48:00,
2013-11-24 07:54:00,20.1,11.3,30.47,SE,141,0.0,3.0,68,0.00,,,0.00,WeatherCatV1.22B15,2013-11-24 12:54:00,
2013-11-24 07:59:00,20.1,11.6,30.48,South,177,2.0,2.0,69,0.00,,,0.00,WeatherCatV1.22B15,2013-11-24 12:59:00,
2013-11-24 08:04:00,20.2,11.4,30.48,SE,131,0.0,1.0,68,0.00,,,0.00,WeatherCatV1.22B15,2013-11-24 13:04:00,
2013-11-24 08:09:00,20.3,11.8,30.48,ESE,122,0.0,0.0,69,0.00,,,0.00,WeatherCatV1.22B15,2013-11-24 13:09:00,
2013-11-24 08:14:00,20.3,11.8,30.49,SE,127,0.0,0.0,69,0.00,,,0.00,WeatherCatV1.22B15,2013-11-24 13:14:00,
2013-11-24 08:19:00,20.2,11.7,30.49,ESE,118,0.0,1.0,69,0.00,,,0.00,WeatherCatV1.22B15,2013-11-24 13:19:00,
2013-11-24 08:24:00,20.4,12.2,30.49,ESE,117,0.0,0.0,70,0.00,,,0.00,WeatherCatV1.22B15,2013-11-24 13:24:00,
2013-11-24 08:29:00,20.3,11.4,30.50,ESE,105,0.0,1.0,68,0.00,,,0.00,WeatherCatV1.22B15,2013-11-24 13:29:00,
2013-11-24 08:35:00,20.3,11.4,30.50,SSE,157,1.0,1.0,68,0.00,,,0.00,WeatherCatV1.22B15,2013-11-24 13:35:00,
2013-11-24 08:40:00,20.3,11.4,30.50,ESE,112,0.0,1.0,68,0.00,,,0.00,WeatherCatV1.22B15,2013-11-24 13:40:00,
2013-11-24 08:45:00,20.6,11.7,30.51,SE,126,4.0,5.0,68,0.00,,,0.00,WeatherCatV1.22B15,2013-11-24 13:45:00,
2013-11-24 08:50:00,20.7,11.8,30.51,ESE,103,0.0,2.0,68,0.00,,,0.00,WeatherCatV1.22B15,2013-11-24 13:50:00,
2013-11-24 08:55:00,20.8,11.9,30.51,East,82,0.0,0.0,68,0.00,,,0.00,WeatherCatV1.22B15,2013-11-24 13:55:00,
2013-11-24 09:00:00,20.9,12.0,30.51,SE,139,1.0,1.0,68,0.00,,,0.00,WeatherCatV1.22B15,2013-11-24 14:00:00,
2013-11-24 09:05:00,21.2,12.3,30.52,East,88,1.0,1.0,68,0.00,,,0.00,WeatherCatV1.22B15,2013-11-24 14:05:00,
2013-11-24 09:11:00,21.3,11.7,30.52,SSE,168,2.0,3.0,66,0.00,,,0.00,WeatherCatV1.22B15,2013-11-24 14:11:00,
2013-11-24 09:16:00,21.3,11.7,30.52,SSE,163,1.0,5.0,66,0.00,,,0.00,WeatherCatV1.22B15,2013-11-24 14:16:00,
2013-11-24 09:21:00,21.4,11.8,30.52,SSW,196,2.0,2.0,66,0.00,,,0.00,WeatherCatV1.22B15,2013-11-24 14:21:00,
2013-11-24 09:26:00,21.6,11.7,30.52,ESE,119,1.0,3.0,65,0.00,,,0.00,WeatherCatV1.22B15,2013-11-24 14:26:00,
2013-11-24 09:31:00,21.7,11.8,30.52,SE,129,0.0,1.0,65,0.00,,,0.00,WeatherCatV1.22B15,2013-11-24 14:31:00,
2013-11-24 09:36:00,21.9,11.6,30.52,SE,124,0.0,2.0,64,0.00,,,0.00,WeatherCatV1.22B15,2013-11-24 14:36:00,
2013-11-24 09:42:00,22.1,12.2,30.52,SE,143,1.0,6.0,65,0.00,,,0.00,WeatherCatV1.22B15,2013-11-24 14:42:00,
2013-11-24 09:47:00,22.3,10.9,30.52,East,87,3.0,8.0,61,0.00,,,0.00,WeatherCatV1.22B15,2013-11-24 14:47:00,
2013-11-24 09:52:00,22.5,11.1,30.52,ESE,121,0.0,6.0,61,0.00,,,0.00,WeatherCatV1.22B15,2013-11-24 14:52:00,
2013-11-24 09:57:00,22.5,10.7,30.53,NW,323,1.0,3.0,60,0.00,,,0.00,WeatherCatV1.22B15,2013-11-24 14:57:00,
2013-11-24 10:02:00,22.5,10.7,30.52,West,266,5.0,5.0,60,0.00,,,0.00,WeatherCatV1.22B15,2013-11-24 15:02:00,
2013-11-24 10:07:00,22.5,10.4,30.52,South,170,0.0,1.0,59,0.00,,,0.00,WeatherCatV1.22B15,2013-11-24 15:07:00,
2013-11-24 10:13:00,22.9,11.5,30.52,WNW,292,4.0,4.0,61,0.00,,,0.00,WeatherCatV1.22B15,2013-11-24 15:13:00,
2013-11-24 10:18:00,23.2,11.4,30.52,ESE,105,0.0,4.0,60,0.00,,,0.00,WeatherCatV1.22B15,2013-11-24 15:18:00,
2013-11-24 10:23:00,23.2,11.0,30.52,ESE,122,0.0,2.0,59,0.00,,,0.00,WeatherCatV1.22B15,2013-11-24 15:23:00,
2013-11-24 10:28:00,23.4,11.6,30.52,SE,132,0.0,0.0,60,0.00,,,0.00,WeatherCatV1.22B15,2013-11-24 15:28:00,
2013-11-24 10:33:00,23.9,12.1,30.52,ESE,106,0.0,4.0,60,0.00,,,0.00,WeatherCatV1.22B15,2013-11-24 15:33:00,
2013-11-24 10:38:00,24.3,12.1,30.52,SE,138,0.0,4.0,59,0.00,,,0.00,WeatherCatV1.22B15,2013-11-24 15:38:00,
2013-11-24 10:43:00,24.4,12.2,30.52,SE,130,0.0,4.0,59,0.00,,,0.00,WeatherCatV1.22B15,2013-11-24 15:43:00,
2013-11-24 10:48:00,24.6,12.7,30.52,South,191,0.0,2.0,60,0.00,,,0.00,WeatherCatV1.22B15,2013-11-24 15:48:00,
2013-11-24 10:53:00,25.1,12.4,30.52,ESE,106,0.0,4.0,58,0.00,,,0.00,WeatherCatV1.22B15,2013-11-24 15:53:00,
2013-11-24 10:59:00,25.4,12.7,30.52,SSE,154,1.0,2.0,58,0.00,,,0.00,WeatherCatV1.22B15,2013-11-24 15:59:00,
2013-11-24 11:04:00,25.7,12.6,30.52,ENE,63,0.0,3.0,57,0.00,,,0.00,WeatherCatV1.22B15,2013-11-24 16:04:00,
2013-11-24 11:09:00,25.8,12.3,30.52,NE,55,0.0,4.0,56,0.00,,,0.00,WeatherCatV1.22B15,2013-11-24 16:09:00,
2013-11-24 11:14:00,25.9,12.4,30.52,East,89,1.0,3.0,56,0.00,,,0.00,WeatherCatV1.22B15,2013-11-24 16:14:00,
2013-11-24 11:19:00,26.2,12.3,30.52,SW,227,1.0,4.0,55,0.00,,,0.00,WeatherCatV1.22B15,2013-11-24 16:19:00,
2013-11-24 11:24:00,26.4,12.0,30.52,WSW,250,2.0,5.0,54,0.00,,,0.00,WeatherCatV1.22B15,2013-11-24 16:24:00,
2013-11-24 11:29:00,26.4,12.0,30.52,ESE,108,0.0,1.0,54,0.00,,,0.00,WeatherCatV1.22B15,2013-11-24 16:29:00,
2013-11-24 11:34:00,26.7,12.7,30.51,SE,138,1.0,6.0,55,0.00,,,0.00,WeatherCatV1.22B15,2013-11-24 16:34:00,
2013-11-24 11:39:00,26.8,12.8,30.51,ENE,76,1.0,1.0,55,0.00,,,0.00,WeatherCatV1.22B15,2013-11-24 16:39:00,
2013-11-24 11:44:00,27.0,13.0,30.51,North,352,1.0,8.0,55,0.00,,,0.00,WeatherCatV1.22B15,2013-11-24 16:44:00,
2013-11-24 11:50:00,27.5,14.3,30.51,NNW,335,2.0,2.0,57,0.00,,,0.00,WeatherCatV1.22B15,2013-11-24 16:50:00,
2013-11-24 11:55:00,27.9,13.9,30.51,SSE,168,1.0,1.0,55,0.00,,,0.00,WeatherCatV1.22B15,2013-11-24 16:55:00,
2013-11-24 12:00:00,28.5,14.4,30.51,South,190,4.0,6.0,55,0.00,,,0.00,WeatherCatV1.22B15,2013-11-24 17:00:00,
2013-11-24 12:05:00,28.5,13.6,30.50,ESE,108,0.0,1.0,53,0.00,,,0.00,WeatherCatV1.22B15,2013-11-24 17:05:00,
2013-11-24 12:10:00,28.7,13.3,30.50,East,101,1.0,1.0,52,0.00,,,0.00,WeatherCatV1.22B15,2013-11-24 17:10:00,
2013-11-24 12:15:00,28.9,13.5,30.50,East,86,1.0,1.0,52,0.00,,,0.00,WeatherCatV1.22B15,2013-11-24 17:15:00,
2013-11-24 12:20:00,29.3,13.9,30.50,North,356,4.0,4.0,52,0.00,,,0.00,WeatherCatV1.22B15,2013-11-24 17:20:00,
2013-11-24 12:25:00,29.6,13.7,30.50,ESE,112,0.0,0.0,51,0.00,,,0.00,WeatherCatV1.22B15,2013-11-24 17:25:00,
2013-11-24 12:30:00,29.9,14.0,30.50,SE,139,0.0,0.0,51,0.00,,,0.00,WeatherCatV1.22B15,2013-11-24 17:30:00,
2013-11-24 12:35:00,30.0,13.2,30.50,ESE,121,1.0,1.0,49,0.00,,,0.00,WeatherCatV1.22B15,2013-11-24 17:35:00,
2013-11-24 12:40:00,30.5,13.6,30.50,East,85,0.0,2.0,49,0.00,,,0.00,WeatherCatV1.22B15,2013-11-24 17:40:00,
2013-11-24 12:45:00,30.6,13.7,30.50,SSW,204,3.0,3.0,49,0.00,,,0.00,WeatherCatV1.22B15,2013-11-24 17:45:00,
2013-11-24 12:50:00,31.0,13.6,30.49,ENE,60,0.0,1.0,48,0.00,,,0.00,WeatherCatV1.22B15,2013-11-24 17:50:00,
2013-11-24 12:56:00,31.2,12.9,30.49,ESE,117,3.0,3.0,46,0.00,,,0.00,WeatherCatV1.22B15,2013-11-24 17:56:00,
2013-11-24 13:01:00,31.0,12.7,30.49,SE,145,1.0,3.0,46,0.00,,,0.00,WeatherCatV1.22B15,2013-11-24 18:01:00,
2013-11-24 13:06:00,31.2,12.9,30.49,NNE,23,2.0,5.0,46,0.00,,,0.00,WeatherCatV1.22B15,2013-11-24 18:06:00,
2013-11-24 13:11:00,30.8,12.0,30.49,NNE,17,3.0,3.0,45,0.00,,,0.00,WeatherCatV1.22B15,2013-11-24 18:11:00,
2013-11-24 13:16:00,31.3,12.4,30.48,SSE,162,0.0,2.0,45,0.00,,,0.00,WeatherCatV1.22B15,2013-11-24 18:16:00,
2013-11-24 13:21:00,31.6,12.7,30.48,SE,135,0.0,1.0,45,0.00,,,0.00,WeatherCatV1.22B15,2013-11-24 18:21:00,
2013-11-24 13:26:00,31.7,12.3,30.48,SSW,195,0.0,2.0,44,0.00,,,0.00,WeatherCatV1.22B15,2013-11-24 18:26:00,
2013-11-24 13:31:00,31.6,12.7,30.48,SE,141,2.0,2.0,45,0.00,,,0.00,WeatherCatV1.22B15,2013-11-24 18:31:00,
2013-11-24 13:36:00,31.7,11.8,30.48,SSE,163,0.0,1.0,43,0.00,,,0.00,WeatherCatV1.22B15,2013-11-24 18:36:00,
2013-11-24 13:42:00,32.3,12.3,30.48,ENE,66,1.0,1.0,43,0.00,,,0.00,WeatherCatV1.22B15,2013-11-24 18:42:00,
2013-11-24 13:47:00,32.7,12.2,30.48,ENE,72,0.0,2.0,42,0.00,,,0.00,WeatherCatV1.22B15,2013-11-24 18:47:00,
2013-11-24 13:52:00,33.1,13.1,30.48,East,101,0.0,1.0,43,0.00,,,0.00,WeatherCatV1.22B15,2013-11-24 18:52:00,
2013-11-24 13:57:00,33.5,12.9,30.48,SE,146,0.0,1.0,42,0.00,,,0.00,WeatherCatV1.22B15,2013-11-24 18:57:00,
2013-11-24 14:02:00,33.0,11.9,30.47,NNE,26,3.0,5.0,41,0.00,,,0.00,WeatherCatV1.22B15,2013-11-24 19:02:00,
2013-11-24 14:07:00,32.9,11.8,30.47,ESE,115,1.0,3.0,41,0.00,,,0.00,WeatherCatV1.22B15,2013-11-24 19:07:00,
2013-11-24 14:12:00,32.6,11.0,30.47,East,79,0.0,5.0,40,0.00,,,0.00,WeatherCatV1.22B15,2013-11-24 19:12:00,
2013-11-24 14:17:00,32.8,12.3,30.47,SSW,203,1.0,5.0,42,0.00,,,0.00,WeatherCatV1.22B15,2013-11-24 19:17:00,
2013-11-24 14:23:00,32.9,12.9,30.47,NE,40,2.0,5.0,43,0.00,,,0.00,WeatherCatV1.22B15,2013-11-24 19:23:00,
2013-11-24 14:28:00,33.2,13.2,30.46,East,82,0.0,0.0,43,0.00,,,0.00,WeatherCatV1.22B15,2013-11-24 19:28:00,
2013-11-24 14:33:00,33.5,15.4,30.46,NE,37,2.0,2.0,47,0.00,,,0.00,WeatherCatV1.22B15,2013-11-24 19:33:00,
2013-11-24 14:38:00,33.4,12.3,30.46,West,277,4.0,4.0,41,0.00,,,0.00,WeatherCatV1.22B15,2013-11-24 19:38:00,
2013-11-24 14:43:00,33.5,12.9,30.46,ESE,115,0.0,0.0,42,0.00,,,0.00,WeatherCatV1.22B15,2013-11-24 19:43:00,
2013-11-24 14:48:00,33.6,11.3,30.46,ESE,110,6.0,6.0,39,0.00,,,0.00,WeatherCatV1.22B15,2013-11-24 19:48:00,
2013-11-24 14:54:00,32.9,10.7,30.46,SE,134,1.0,2.0,39,0.00,,,0.00,WeatherCatV1.22B15,2013-11-24 19:54:00,
2013-11-24 14:59:00,33.4,11.7,30.46,East,94,0.0,0.0,40,0.00,,,0.00,WeatherCatV1.22B15,2013-11-24 19:59:00,
2013-11-24 15:04:00,33.3,11.1,30.46,SW,214,3.0,3.0,39,0.00,,,0.00,WeatherCatV1.22B15,2013-11-24 20:04:00,
2013-11-24 15:10:00,32.9,10.7,30.46,WSW,237,0.0,2.0,39,0.00,,,0.00,WeatherCatV1.22B15,2013-11-24 20:10:00,
2013-11-24 15:15:00,33.1,10.9,30.46,ESE,116,0.0,4.0,39,0.00,,,0.00,WeatherCatV1.22B15,2013-11-24 20:15:00,
2013-11-24 15:20:00,32.9,10.7,30.46,SSE,166,2.0,4.0,39,0.00,,,0.00,WeatherCatV1.22B15,2013-11-24 20:20:00,
2013-11-24 15:25:00,32.5,10.3,30.47,ESE,110,0.0,3.0,39,0.00,,,0.00,WeatherCatV1.22B15,2013-11-24 20:25:00,
2013-11-24 15:30:00,32.9,11.2,30.47,East,91,0.0,0.0,40,0.00,,,0.00,WeatherCatV1.22B15,2013-11-24 20:30:00,
2013-11-24 15:35:00,33.1,10.3,30.47,ESE,121,2.0,2.0,38,0.00,,,0.00,WeatherCatV1.22B15,2013-11-24 20:35:00,
2013-11-24 15:41:00,32.8,10.0,30.47,East,79,0.0,0.0,38,0.00,,,0.00,WeatherCatV1.22B15,2013-11-24 20:41:00,
2013-11-24 15:46:00,32.6,10.4,30.47,SE,124,0.0,1.0,39,0.00,,,0.00,WeatherCatV1.22B15,2013-11-24 20:46:00,
2013-11-24 15:51:00,32.5,10.3,30.47,SE,124,1.0,3.0,39,0.00,,,0.00,WeatherCatV1.22B15,2013-11-24 20:51:00,
2013-11-24 15:56:00,32.4,10.2,30.48,ENE,69,0.0,3.0,39,0.00,,,0.00,WeatherCatV1.22B15,2013-11-24 20:56:00,
2013-11-24 16:01:00,32.7,10.5,30.48,ESE,120,0.0,2.0,39,0.00,,,0.00,WeatherCatV1.22B15,2013-11-24 21:01:00,
2013-11-24 16:06:00,32.9,11.2,30.48,East,94,0.0,2.0,40,0.00,,,0.00,WeatherCatV1.22B15,2013-11-24 21:06:00,
2013-11-24 16:11:00,32.8,11.2,30.48,East,96,0.0,1.0,40,0.00,,,0.00,WeatherCatV1.22B15,2013-11-24 21:11:00,
2013-11-24 16:16:00,32.5,10.9,30.48,East,95,0.0,1.0,40,0.00,,,0.00,WeatherCatV1.22B15,2013-11-24 21:16:00,
2013-11-24 16:21:00,31.8,10.3,30.48,SE,127,2.0,2.0,40,0.00,,,0.00,WeatherCatV1.22B15,2013-11-24 21:21:00,
2013-11-24 16:26:00,31.1,9.1,30.48,ESE,119,0.0,2.0,39,0.00,,,0.00,WeatherCatV1.22B15,2013-11-24 21:26:00,
2013-11-24 16:31:00,30.9,10.0,30.48,NE,56,2.0,2.0,41,0.00,,,0.00,WeatherCatV1.22B15,2013-11-24 21:31:00,
2013-11-24 16:37:00,30.6,9.2,30.49,NNW,338,0.0,1.0,40,0.00,,,0.00,WeatherCatV1.22B15,2013-11-24 21:37:00,
2013-11-24 16:42:00,30.4,9.6,30.49,ESE,112,0.0,1.0,41,0.00,,,0.00,WeatherCatV1.22B15,2013-11-24 21:42:00,
2013-11-24 16:47:00,30.1,8.2,30.48,ESE,107,0.0,0.0,39,0.00,,,0.00,WeatherCatV1.22B15,2013-11-24 21:47:00,
2013-11-24 16:52:00,29.8,9.5,30.49,ESE,108,0.0,0.0,42,0.00,,,0.00,WeatherCatV1.22B15,2013-11-24 21:52:00,
2013-11-24 16:57:00,29.6,9.4,30.48,SSE,147,0.0,1.0,42,0.00,,,0.00,WeatherCatV1.22B15,2013-11-24 21:57:00,
2013-11-24 17:02:00,29.5,11.3,30.49,ESE,118,0.0,0.0,46,0.00,,,0.00,WeatherCatV1.22B15,2013-11-24 22:02:00,
2013-11-24 17:07:00,29.3,9.1,30.49,South,179,1.0,1.0,42,0.00,,,0.00,WeatherCatV1.22B15,2013-11-24 22:07:00,
2013-11-24 17:12:00,29.3,12.5,30.49,SSE,159,1.0,1.0,49,0.00,,,0.00,WeatherCatV1.22B15,2013-11-24 22:12:00,
2013-11-24 17:17:00,29.2,12.0,30.49,ESE,111,0.0,0.0,48,0.00,,,0.00,WeatherCatV1.22B15,2013-11-24 22:17:00,
2013-11-24 17:22:00,28.8,9.7,30.49,SE,135,0.0,0.0,44,0.00,,,0.00,WeatherCatV1.22B15,2013-11-24 22:22:00,
2013-11-24 17:27:00,28.3,8.7,30.49,ESE,106,0.0,0.0,43,0.00,,,0.00,WeatherCatV1.22B15,2013-11-24 22:27:00,
2013-11-24 17:33:00,28.2,8.6,30.49,East,83,0.0,0.0,43,0.00,,,0.00,WeatherCatV1.22B15,2013-11-24 22:33:00,
2013-11-24 17:38:00,27.9,7.8,30.50,ESE,115,0.0,3.0,42,0.00,,,0.00,WeatherCatV1.22B15,2013-11-24 22:38:00,
2013-11-24 17:43:00,27.7,8.1,30.50,SE,127,0.0,0.0,43,0.00,,,0.00,WeatherCatV1.22B15,2013-11-24 22:43:00,
2013-11-24 17:48:00,27.6,8.1,30.50,SE,127,0.0,1.0,43,0.00,,,0.00,WeatherCatV1.22B15,2013-11-24 22:48:00,
2013-11-24 17:53:00,27.3,8.3,30.50,SE,125,0.0,1.0,44,0.00,,,0.00,WeatherCatV1.22B15,2013-11-24 22:53:00,
2013-11-24 17:58:00,27.1,8.1,30.51,SE,125,0.0,0.0,44,0.00,,,0.00,WeatherCatV1.22B15,2013-11-24 22:58:00,
2013-11-24 18:03:00,26.9,7.9,30.51,ESE,105,0.0,0.0,44,0.00,,,0.00,WeatherCatV1.22B15,2013-11-24 23:03:00,
2013-11-24 18:08:00,26.6,8.2,30.51,East,93,0.0,0.0,45,0.00,,,0.00,WeatherCatV1.22B15,2013-11-24 23:08:00,
2013-11-24 18:13:00,26.5,8.1,30.51,East,91,0.0,1.0,45,0.00,,,0.00,WeatherCatV1.22B15,2013-11-24 23:13:00,
2013-11-24 18:19:00,26.5,8.1,30.52,East,101,0.0,0.0,45,0.00,,,0.00,WeatherCatV1.22B15,2013-11-24 23:19:00,
2013-11-24 18:24:00,26.4,8.5,30.52,ESE,120,0.0,0.0,46,0.00,,,0.00,WeatherCatV1.22B15,2013-11-24 23:24:00,
2013-11-24 18:29:00,26.4,9.9,30.52,ESE,117,0.0,0.0,49,0.00,,,0.00,WeatherCatV1.22B15,2013-11-24 23:29:00,
2013-11-24 18:34:00,26.5,9.9,30.52,ENE,77,0.0,0.0,49,0.00,,,0.00,WeatherCatV1.22B15,2013-11-24 23:34:00,
2013-11-24 18:40:00,26.7,10.6,30.52,ESE,120,1.0,1.0,50,0.00,,,0.00,WeatherCatV1.22B15,2013-11-24 23:40:00,
2013-11-24 18:45:00,26.7,11.9,30.52,SE,124,0.0,2.0,53,0.00,,,0.00,WeatherCatV1.22B15,2013-11-24 23:45:00,
2013-11-24 18:50:00,26.6,8.2,30.53,East,80,0.0,1.0,45,0.00,,,0.00,WeatherCatV1.22B15,2013-11-24 23:50:00,
2013-11-24 18:55:00,26.4,8.9,30.53,East,79,0.0,0.0,47,0.00,,,0.00,WeatherCatV1.22B15,2013-11-24 23:55:00,
2013-11-24 19:00:00,26.4,8.9,30.53,East,79,0.0,0.0,47,0.00,,,0.00,WeatherCatV1.22B15,2013-11-25 00:00:00,
2013-11-24 19:06:00,26.2,8.3,30.53,East,79,0.0,0.0,46,0.00,,,0.00,WeatherCatV1.22B15,2013-11-25 00:06:00,
2013-11-24 19:11:00,25.7,7.8,30.53,East,79,0.0,0.0,46,0.00,,,0.00,WeatherCatV1.22B15,2013-11-25 00:11:00,
2013-11-24 19:16:00,25.3,8.4,30.54,East,79,0.0,0.0,48,0.00,,,0.00,WeatherCatV1.22B15,2013-11-25 00:16:00,
2013-11-24 19:21:00,25.3,8.4,30.54,ESE,105,0.0,1.0,48,0.00,,,0.00,WeatherCatV1.22B15,2013-11-25 00:21:00,
2013-11-24 19:26:00,25.2,8.8,30.55,ESE,104,0.0,0.0,49,0.00,,,0.00,WeatherCatV1.22B15,2013-11-25 00:26:00,
2013-11-24 19:31:00,25.0,9.5,30.55,ESE,105,0.0,0.0,51,0.00,,,0.00,WeatherCatV1.22B15,2013-11-25 00:31:00,
2013-11-24 19:37:00,24.8,8.4,30.55,ESE,105,0.0,0.0,49,0.00,,,0.00,WeatherCatV1.22B15,2013-11-25 00:37:00,
2013-11-24 19:42:00,24.6,9.9,30.55,ESE,105,0.0,0.0,53,0.00,,,0.00,WeatherCatV1.22B15,2013-11-25 00:42:00,
2013-11-24 19:47:00,24.5,10.3,30.55,ESE,105,0.0,0.0,54,0.00,,,0.00,WeatherCatV1.22B15,2013-11-25 00:47:00,
2013-11-24 19:52:00,24.2,10.0,30.55,ESE,105,0.0,0.0,54,0.00,,,0.00,WeatherCatV1.22B15,2013-11-25 00:52:00,
2013-11-24 19:57:00,23.9,8.4,30.54,ESE,104,0.0,0.0,51,0.00,,,0.00,WeatherCatV1.22B15,2013-11-25 00:57:00,
2013-11-24 20:03:00,23.8,8.8,30.55,ESE,105,0.0,0.0,52,0.00,,,0.00,WeatherCatV1.22B15,2013-11-25 01:03:00,
2013-11-24 20:08:00,24.0,10.2,30.55,ESE,105,0.0,0.0,55,0.00,,,0.00,WeatherCatV1.22B15,2013-11-25 01:08:00,
2013-11-24 20:13:00,24.1,10.7,30.55,ESE,105,0.0,0.0,56,0.00,,,0.00,WeatherCatV1.22B15,2013-11-25 01:13:00,
2013-11-24 20:18:00,24.0,10.6,30.55,ESE,105,0.0,0.0,56,0.00,,,0.00,WeatherCatV1.22B15,2013-11-25 01:18:00,
2013-11-24 20:23:00,23.9,10.1,30.55,ESE,105,0.0,0.0,55,0.00,,,0.00,WeatherCatV1.22B15,2013-11-25 01:23:00,
2013-11-24 20:28:00,23.7,11.5,30.55,ESE,105,0.0,0.0,59,0.00,,,0.00,WeatherCatV1.22B15,2013-11-25 01:28:00,
2013-11-24 20:33:00,23.5,11.7,30.55,ESE,105,0.0,0.0,60,0.00,,,0.00,WeatherCatV1.22B15,2013-11-25 01:33:00,
2013-11-24 20:38:00,23.4,10.8,30.55,ESE,105,0.0,0.0,58,0.00,,,0.00,WeatherCatV1.22B15,2013-11-25 01:38:00,
2013-11-24 20:43:00,23.3,10.7,30.55,ESE,105,0.0,0.0,58,0.00,,,0.00,WeatherCatV1.22B15,2013-11-25 01:43:00,
2013-11-24 20:48:00,23.1,10.9,30.55,ESE,105,0.0,0.0,59,0.00,,,0.00,WeatherCatV1.22B15,2013-11-25 01:48:00,
2013-11-24 20:53:00,23.2,11.0,30.55,ESE,105,0.0,0.0,59,0.00,,,0.00,WeatherCatV1.22B15,2013-11-25 01:53:00,
2013-11-24 20:59:00,23.1,10.2,30.55,ESE,105,0.0,0.0,57,0.00,,,0.00,WeatherCatV1.22B15,2013-11-25 01:59:00,
2013-11-24 21:04:00,23.2,10.2,30.54,ESE,105,0.0,0.0,57,0.00,,,0.00,WeatherCatV1.22B15,2013-11-25 02:04:00,
2013-11-24 21:09:00,23.2,10.2,30.54,ESE,105,0.0,0.0,57,0.00,,,0.00,WeatherCatV1.22B15,2013-11-25 02:09:00,
2013-11-24 21:14:00,23.2,11.0,30.54,ESE,105,0.0,0.0,59,0.00,,,0.00,WeatherCatV1.22B15,2013-11-25 02:14:00,
2013-11-24 21:19:00,23.2,11.0,30.54,ESE,105,0.0,0.0,59,0.00,,,0.00,WeatherCatV1.22B15,2013-11-25 02:19:00,
2013-11-24 21:24:00,23.2,11.8,30.54,ESE,105,0.0,0.0,61,0.00,,,0.00,WeatherCatV1.22B15,2013-11-25 02:24:00,
2013-11-24 21:29:00,23.0,11.2,30.54,ESE,105,0.0,0.0,60,0.00,,,0.00,WeatherCatV1.22B15,2013-11-25 02:29:00,
2013-11-24 21:34:00,22.4,11.0,30.54,ESE,105,0.0,1.0,61,0.00,,,0.00,WeatherCatV1.22B15,2013-11-25 02:34:00,
2013-11-24 21:40:00,21.7,12.1,30.54,ESE,105,0.0,1.0,66,0.00,,,0.00,WeatherCatV1.22B15,2013-11-25 02:40:00,
2013-11-24 21:45:00,21.7,11.4,30.54,ESE,105,0.0,0.0,64,0.00,,,0.00,WeatherCatV1.22B15,2013-11-25 02:45:00,
2013-11-24 21:50:00,21.7,11.4,30.54,ESE,110,0.0,0.0,64,0.00,,,0.00,WeatherCatV1.22B15,2013-11-25 02:50:00,
2013-11-24 21:55:00,21.7,11.4,30.53,ESE,116,0.0,0.0,64,0.00,,,0.00,WeatherCatV1.22B15,2013-11-25 02:55:00,
2013-11-24 22:00:00,21.7,11.1,30.53,ESE,116,0.0,0.0,63,0.00,,,0.00,WeatherCatV1.22B15,2013-11-25 03:00:00,
2013-11-24 22:05:00,21.7,11.8,30.53,ESE,117,0.0,1.0,65,0.00,,,0.00,WeatherCatV1.22B15,2013-11-25 03:05:00,
2013-11-24 22:10:00,21.5,11.9,30.52,ESE,117,0.0,0.0,66,0.00,,,0.00,WeatherCatV1.22B15,2013-11-25 03:10:00,
2013-11-24 22:15:00,21.6,11.7,30.53,ESE,117,0.0,1.0,65,0.00,,,0.00,WeatherCatV1.22B15,2013-11-25 03:15:00,
2013-11-24 22:20:00,21.4,11.5,30.53,ESE,117,0.0,0.0,65,0.00,,,0.00,WeatherCatV1.22B15,2013-11-25 03:20:00,
2013-11-24 22:26:00,21.2,11.6,30.53,ESE,117,0.0,0.0,66,0.00,,,0.00,WeatherCatV1.22B15,2013-11-25 03:26:00,
2013-11-24 22:31:00,20.9,11.0,30.54,ESE,116,0.0,0.0,65,0.00,,,0.00,WeatherCatV1.22B15,2013-11-25 03:31:00,
2013-11-24 22:37:00,20.6,11.1,30.54,ESE,116,0.0,0.0,66,0.00,,,0.00,WeatherCatV1.22B15,2013-11-25 03:37:00,
2013-11-24 22:42:00,20.3,10.8,30.54,ESE,116,0.0,0.0,66,0.00,,,0.00,WeatherCatV1.22B15,2013-11-25 03:42:00,
2013-11-24 22:47:00,20.2,11.0,30.54,ESE,116,0.0,0.0,67,0.00,,,0.00,WeatherCatV1.22B15,2013-11-25 03:47:00,
2013-11-24 22:52:00,20.2,11.0,30.54,ESE,116,0.0,0.0,67,0.00,,,0.00,WeatherCatV1.22B15,2013-11-25 03:52:00,
2013-11-24 22:57:00,20.1,11.3,30.54,ESE,116,0.0,0.0,68,0.00,,,0.00,WeatherCatV1.22B15,2013-11-25 03:57:00,
2013-11-24 23:02:00,20.4,12.5,30.53,ESE,116,0.0,0.0,71,0.00,,,0.00,WeatherCatV1.22B15,2013-11-25 04:02:00,
2013-11-24 23:08:00,20.4,11.9,30.53,ESE,116,0.0,0.0,69,0.00,,,0.00,WeatherCatV1.22B15,2013-11-25 04:08:00,
2013-11-24 23:13:00,20.1,11.6,30.54,ESE,116,0.0,0.0,69,0.00,,,0.00,WeatherCatV1.22B15,2013-11-25 04:13:00,
2013-11-24 23:18:00,19.9,11.7,30.54,ESE,116,0.0,0.0,70,0.00,,,0.00,WeatherCatV1.22B15,2013-11-25 04:18:00,
2013-11-24 23:23:00,20.0,11.8,30.54,ESE,116,0.0,0.0,70,0.00,,,0.00,WeatherCatV1.22B15,2013-11-25 04:23:00,
2013-11-24 23:28:00,19.9,11.7,30.54,ESE,116,0.0,0.0,70,0.00,,,0.00,WeatherCatV1.22B15,2013-11-25 04:28:00,
2013-11-24 23:33:00,20.0,12.1,30.54,ESE,116,0.0,0.0,71,0.00,,,0.00,WeatherCatV1.22B15,2013-11-25 04:33:00,
2013-11-24 23:39:00,20.0,12.4,30.54,ESE,116,0.0,0.0,72,0.00,,,0.00,WeatherCatV1.22B15,2013-11-25 04:39:00,
2013-11-24 23:44:00,20.1,12.9,30.54,ESE,116,0.0,0.0,73,0.00,,,0.00,WeatherCatV1.22B15,2013-11-25 04:44:00,
2013-11-24 23:49:00,20.2,11.7,30.54,ENE,69,0.0,1.0,69,0.00,,,0.00,WeatherCatV1.22B15,2013-11-25 04:49:00,
2013-11-24 23:54:00,21.3,8.5,30.55,ENE,66,0.0,1.0,57,0.00,,,0.00,WeatherCatV1.22B15,2013-11-25 04:54:00,
2013-11-24 23:59:00,22.5,8.0,30.55,ENE,72,0.0,1.0,53,0.00,,,0.00,WeatherCatV1.22B15,2013-11-25 04:59:00,